Tracking 28790 objects as of 19-Apr-2024
HD Live streaming from Space Station
objects crossing your sky now

COSMOS 2251 DEB

Track COSMOS 2251 DEB now!
10-day predictions


NORAD ID: 35987
Int'l Code: 1993-036AWD
Perigee: 737.4 km
Apogee: 815.8 km
Inclination: 74.0 °
Period: 100.2 minutes
Semi major axis: 7147 km
RCS: 0.0082 m2 (small)
Launch date: June 16, 1993
Source: Commonwealth of Independent States (former USSR) (CIS)
Launch site: PLESETSK MISSILE AND SPACE COMPLEX (PKMTR)

Note: This is SATELLITE DEBRIS
Your satellite tracking list
Your tracking list is empty




NASA's NSSDC Master Catalog

Two Line Element Set (TLE):
1 35987U 93036AWD 24109.38197211  .00006253  00000-0  20936-2 0  9999
2 35987  74.0045   4.5839 0054841 269.7115  89.7753 14.36684576523791
Source of the keplerian elements: AFSPC